This is the latest recevied weather packets stored in our database for station/object K5FEP. If no packets are shown the sender has not sent any weather packets the latest 10 day(s).
| Time | Temp. | Humidity | Pressure | Rain* | Wind** | Luminosity | Snow |
|---|---|---|---|---|---|---|---|
| 1777727178 | 12.22° C | 74% | 1013.3 hPa | 0 mm | - | 101 W/m² | - |
| 1777726876 | 12.22° C | 77% | 1013.3 hPa | 0 mm | - | 103 W/m² | - |
| 1777726572 | 11.67° C | 77% | 1013.1 hPa | 0 mm | - | 104 W/m² | - |
| 1777726270 | 11.67° C | 76% | 1013.1 hPa | 0 mm | - | 66 W/m² | - |
| 1777725966 | 11.67° C | 79% | 1013.3 hPa | 0 mm | - | 54 W/m² | - |
| 1777725663 | 11.11° C | 82% | 1013 hPa | 0 mm | - | 69 W/m² | - |
| 1777725361 | 11.11° C | 84% | 1013.3 hPa | 0 mm | - | 53 W/m² | - |
| 1777725058 | 11.11° C | 86% | 1013 hPa | 0 mm | - | 45 W/m² | - |
| 1777724754 | 11.11° C | 84% | 1012.9 hPa | 0 mm | - | 59 W/m² | - |
| 1777724452 | 11.11° C | 84% | 1013.1 hPa | 0 mm | - | 44 W/m² | - |
| 1777724149 | 10.56° C | 84% | 1013 hPa | 0 mm | - | 42 W/m² | - |
| 1777723847 | 11.11° C | 87% | 1013 hPa | 0 mm | - | 36 W/m² | - |
| 1777723543 | 10.56° C | 85% | 1013 hPa | 0 mm | - | 35 W/m² | - |
| 1777723240 | 10.56° C | 85% | 1012.8 hPa | 0 mm | - | 46 W/m² | - |
| 1777722938 | 10.56° C | 85% | 1012.8 hPa | 0 mm | - | 40 W/m² | - |
| 1777722633 | 10.56° C | 87% | 1012.8 hPa | 0 mm | - | 32 W/m² | - |
| 1777722330 | 10.56° C | 86% | 1013 hPa | 0 mm | - | 39 W/m² | - |
| 1777722027 | 10.56° C | 85% | 1012.8 hPa | 0 mm | - | 45 W/m² | - |
| 1777721725 | 10.56° C | 84% | 1012.8 hPa | 0 mm | - | 37 W/m² | - |
| 1777721423 | 10.56° C | 85% | 1012.7 hPa | 0 mm | - | 34 W/m² | - |
| 1777721121 | 10.56° C | 86% | 1012.5 hPa | 0 mm | - | 32 W/m² | - |
| 1777720818 | 10° C | 85% | 1012.6 hPa | 0 mm | - | 28 W/m² | - |
| 1777720515 | 10° C | 83% | 1012.5 hPa | 0 mm | - | 29 W/m² | - |
| 1777720213 | 10° C | 84% | 1012.6 hPa | 0 mm | - | 21 W/m² | - |
| 1777719910 | 10.56° C | 85% | 1012.8 hPa | 0 mm | - | 16 W/m² | - |
* Rain latest hour (hover to see other rain measurements)
** Current wind speed in m/s (hover to see current wind gust speed)